カタログに戻る

STARLINK-38171

運用中通信SSO
NORAD 100382·PAYLOAD·🇺🇸 United States

打ち上げ Aug 19, 2026 から Vandenberg Space Force Base

Loading…

次のパス (今後24時間)

TLE

最新Source: Space-Track

元期: Sep 14, 2026, 12:43 UTC

1 A0382U 26190M   26257.52996019  .00228222  00000-0  14779-2 0  9992
2 A0382  97.2838 111.5593 0002708 123.6215 236.5310 15.75383230  4173

AllMySatでSTARLINK-38171をリアルタイム追跡

Download on the App Store